Location: Home
(42.5358°N, 72.7383°W)
Time: 04:06:16
(UTC-04:00)

DELTA 1 DEB - Visible Passes

Search period start: 26 June 2022 00:00
Search period end: 06 July 2022 00:00
Orbit: 601 x 774 km, 98.5° (Epoch: 22 June)

Date Brightness Start Highest point End Pass type
(mag) Time Alt. Az. Time Alt. Az. Time Alt. Az.
26 Jun ? 21:58:31 17° ESE 22:01:50 35° ENE 22:06:23 10° N visible
26 Jun ? 23:37:06 22° SW 23:39:12 30° W 23:43:39 10° NW visible
27 Jun ? 22:37:09 29° SSE 22:39:50 77° ENE 22:44:53 10° N visible
28 Jun ? 00:15:44 11° WSW 00:17:42 13° W 00:20:06 10° WNW visible
28 Jun ? 21:37:13 11° ESE 21:40:56 23° ENE 21:44:48 10° NNE visible
28 Jun ? 23:15:47 29° SSW 23:18:01 47° W 23:22:52 10° NNW visible
29 Jun ? 22:15:50 23° SE 22:18:48 48° ENE 22:23:36 10° N visible
29 Jun ? 23:54:25 17° WSW 23:56:22 21° W 00:00:10 10° NW visible
30 Jun ? 21:17:16 10° E 21:20:04 15° ENE 21:22:49 10° NNE visible
30 Jun ? 22:54:28 32° S 22:56:52 76° WSW 23:01:52 10° NNW visible
01 Jul ? 21:54:32 16° ESE 21:57:49 31° ENE 22:02:09 10° N visible
01 Jul ? 23:33:07 24° SW 23:35:07 33° W 23:39:37 10° NNW visible
02 Jul ? 22:33:10 29° SSE 22:35:47 69° ENE 22:40:43 10° N visible
03 Jul ? 00:11:45 12° WSW 00:13:34 15° W 00:16:17 10° WNW visible
03 Jul ? 21:33:15 10° ESE 21:36:53 20° ENE 21:40:27 10° NNE visible
03 Jul ? 23:11:48 31° SSW 23:13:55 52° W 23:18:45 10° NNW visible
04 Jul ? 22:11:52 22° SE 22:14:44 43° ENE 22:19:22 10° N visible
04 Jul ? 23:50:27 19° SW 23:52:15 23° W 23:56:09 10° NW visible
05 Jul ? 21:13:45 10° E 21:16:01 13° ENE 21:18:15 10° NNE visible
05 Jul ? 22:50:31 34° S 22:52:47 84° WSW 22:57:41 10° NNW visible
